Temp_Advection
nan nan nan nan nan nan nan nan nan nan nan nan nan nan nan nan nan nan nan nan nan nan nan nan nan nan nan nan nan nan nan nan nan nan nan nan nan nan nan nan nan nan nan nan nan nan nan nan nan nan nan nan nan nan nan nan nan nan nan nan nan nan nan nan nan nan nan nan nan
nan 1 1 0 -0 -1 -1 -0 0 0 0 -0 -0 -0 -1 -1 -1 -1 0 1 2 1 0 -0 -0 -0 -0 0 0 0 0 -0 -0 -0 -1 -1 -0 0 0 0 0 0 -0 0 0 0 1 1 1 0 -0 0 0 -0 -0 -0 -0 0 0 0 -0 -0 0 0 0 0 0 0 nan
nan 1 1 0 0 0 0 1 1 0 0 0 -0 -0 -1 -1 -0 1 2 2 1 0 -0 -0 -0 -1 -1 -0 0 0 -0 -0 -0 -0 -0 -0 0 1 1 1 0 0 0 0 0 1 1 1 1 0 0 0 -0 -0 -0 0 0 0 0 -0 0 0 0 -0 -0 0 0 -0 nan
nan 1 1 1 2 2 1 1 1 1 0 0 -0 -0 0 1 2 2 1 0 -1 -1 -0 -0 -1 -1 -1 -0 0 -0 -0 -0 -0 0 1 1 1 1 1 1 0 -0 0 0 0 1 1 1 0 0 0 0 0 0 1 1 0 0 -0 -0 -0 -0 -0 -0 0 0 0 -0 nan
nan -0 0 1 1 1 0 0 1 0 0 -0 -0 0 1 1 1 0 -0 -1 -1 -0 -0 -0 -0 -0 -0 -0 -0 -0 -0 -0 0 1 1 1 1 1 0 -0 -0 -0 -0 0 1 1 1 1 0 0 1 1 1 1 1 1 0 -0 -0 -1 -0 -0 -0 -0 -0 0 0 0 nan
nan 1 1 1 0 -0 -0 0 0 0 -0 -0 0 0 1 0 -0 -0 -0 -0 -0 -0 0 -0 -0 -0 -0 -0 -0 -0 -0 0 1 1 1 1 1 0 -0 -1 -1 -1 -0 1 1 1 1 0 1 1 1 1 1 1 1 0 -0 -1 -1 -0 -0 -0 -0 -0 0 1 1 0 nan
nan 2 2 1 0 0 0 0 0 0 0 0 0 0 0 0 -0 -0 0 0 0 0 0 0 -0 0 0 0 -0 -0 -0 -0 0 1 1 1 0 0 -0 -1 -1 -1 0 1 1 1 0 0 1 0 0 0 0 0 0 0 -0 -0 -0 -0 -0 -0 -0 -0 -0 0 1 1 nan
nan 1 1 0 0 0 0 0 0 0 0 0 0 0 0 0 0 0 0 0 0 1 1 1 1 1 0 -0 -1 -1 -0 0 0 1 1 1 -0 -0 -1 -1 -1 -0 0 1 1 1 0 0 0 0 -0 -0 -0 -0 -0 0 0 0 0 -0 0 0 0 0 0 -0 -0 1 nan
nan 1 0 -0 -0 -0 0 0 0 0 0 -0 -0 -0 -0 0 0 0 0 1 1 1 1 1 1 0 -0 -0 -0 -0 0 0 1 1 1 0 0 0 0 0 0 0 1 1 1 1 0 1 0 -0 -0 0 0 0 -0 0 0 1 1 1 1 1 0 1 1 1 1 1 nan
nan 0 0 -0 -0 0 0 0 0 0 -0 -0 -0 -0 -0 -0 -0 0 0 0 1 1 0 0 -0 -0 -0 -0 -0 -0 -0 -0 0 1 1 1 0 1 0 0 0 0 0 1 1 1 0 0 -0 -0 -0 0 0 0 -0 -0 -0 0 0 1 1 1 1 1 2 2 2 1 nan
nan 0 -0 -0 0 1 1 -0 -0 -0 -0 -0 -0 -0 -0 -0 -0 -0 -0 -0 -0 -0 -1 -1 -1 -0 -0 -0 -0 -1 -1 -0 1 2 1 1 0 0 -0 -0 -0 0 0 0 1 0 0 -0 -0 -0 0 0 -0 -1 -1 -1 -0 -0 -0 0 1 1 1 2 2 1 1 0 nan
nan 1 0 -0 0 1 1 1 -0 -1 -1 -1 -0 -0 -0 -0 -0 -0 -0 -0 -0 -0 -0 -0 -0 -0 -0 -0 -1 -1 0 2 3 2 0 -0 -0 -0 -0 -0 0 0 0 0 0 0 -0 -0 -0 -0 -0 -0 -1 -1 -0 -0 -0 -0 0 0 1 1 1 1 0 -0 -0 0 nan
nan 1 0 0 0 0 1 1 0 -0 -1 -1 -0 -0 -0 -0 -0 -0 -1 -1 -1 -1 -1 -0 -0 -0 -0 -0 0 1 3 2 1 -0 -1 -1 -0 -0 -0 0 0 0 0 0 0 0 -0 -1 -1 -1 -0 -1 -1 -1 -0 -0 -0 -0 0 1 2 1 0 -0 -1 -1 -0 0 nan
nan 0 0 0 0 0 0 1 0 -0 -0 -0 -0 -0 -0 -0 -0 -0 -0 -0 -0 -0 -0 -0 -0 0 0 1 2 2 1 0 -0 -1 -1 -1 -1 -0 0 0 0 -0 -0 0 0 -0 -1 -1 -1 -1 -1 -1 -1 -0 0 0 0 0 1 1 2 1 -0 -1 -1 -1 -0 0 nan
nan 0 1 1 0 0 0 1 0 0 -0 -0 -0 0 0 -0 -0 -0 -0 -0 -0 0 0 0 0 0 0 1 1 1 0 0 0 -0 -1 -1 -1 -0 -0 0 0 -0 -0 0 0 -0 -1 -2 -2 -1 -0 -0 0 1 1 1 1 1 1 1 0 -0 -1 -1 -1 -0 -0 -0 nan
nan 0 0 0 0 1 1 1 0 0 -0 -0 -0 -0 -0 -0 -0 -0 -0 -0 0 0 0 0 0 0 -0 -0 -0 -0 1 1 0 -1 -1 -1 -1 -0 0 1 1 1 1 1 0 -0 -1 -2 -2 -0 1 2 2 2 1 1 1 1 0 -0 -1 -1 -0 -0 -0 0 0 0 nan
nan 0 0 0 1 1 1 1 1 0 -0 -0 -0 -0 -0 -0 -0 0 0 0 0 0 -0 0 -0 -0 -0 -0 -0 0 1 1 0 -1 -1 -1 -0 1 1 1 1 1 1 0 0 -0 -1 -1 -0 1 3 3 2 2 1 1 1 0 -0 -1 -0 -0 -0 0 0 0 0 0 nan
nan 1 1 1 1 1 1 1 0 0 -0 -0 -0 -0 -0 -0 0 0 0 0 0 -0 0 0 -0 -0 -0 0 1 1 1 0 0 -0 -0 -0 1 1 1 1 1 1 0 0 0 -0 -0 0 1 2 2 2 1 1 1 1 0 -0 -0 -0 -0 0 0 0 0 0 0 0 nan
nan 1 1 1 1 1 1 0 0 0 0 -0 -0 -0 -0 0 0 1 1 0 0 0 0 0 0 0 1 2 2 2 1 1 0 0 0 1 1 1 1 1 0 0 0 0 -0 -0 -0 -0 0 1 1 1 1 1 0 -0 -0 -0 -0 -0 0 0 0 0 0 -0 -0 -0 nan
nan 0 0 0 0 0 0 0 0 0 0 0 0 0 0 0 1 1 0 0 0 0 0 0 0 1 2 2 2 2 1 0 0 0 0 1 1 1 1 1 0 0 0 -0 -0 -0 -0 -0 0 0 0 0 0 -0 -0 -0 -0 -0 -0 0 0 0 0 0 -0 -0 -0 0 nan
nan 0 0 0 0 0 0 0 0 0 0 0 0 0 1 1 1 1 1 0 0 1 1 1 1 1 2 2 1 1 0 -0 0 0 0 1 1 1 1 1 0 0 0 -0 -0 -0 0 0 0 0 -0 -0 -0 -0 -0 -0 -0 -0 0 0 0 0 0 -0 -0 -0 -0 0 nan
nan 0 0 0 0 0 1 0 0 0 0 0 1 1 1 1 1 1 1 0 0 1 1 1 1 1 1 1 1 0 -0 -0 -0 0 0 1 1 1 1 1 1 0 0 0 0 0 0 0 -0 -0 -0 -0 -0 0 0 0 0 0 0 0 0 0 -0 -0 -0 -0 -0 -0 nan
nan 0 0 0 0 1 1 1 0 1 1 1 1 1 1 2 1 1 -0 -0 0 1 1 1 1 1 1 1 0 0 -0 -0 0 -0 0 0 1 0 0 0 1 1 1 1 0 0 -0 -0 -0 -0 0 0 0 0 0 0 0 0 0 0 -0 -0 -0 -0 -0 -0 -0 -0 nan
nan 0 0 0 1 1 1 1 1 1 1 1 1 1 2 1 1 0 0 0 1 1 0 0 0 1 1 1 0 0 -0 0 0 0 0 0 0 0 0 0 1 1 0 0 0 -0 0 0 0 0 0 0 0 0 0 0 0 0 -0 -0 -0 -0 -0 -0 -0 -0 -0 -0 nan
nan 0 0 1 1 1 1 1 1 1 1 1 1 1 1 1 1 1 1 1 1 1 1 1 1 1 1 1 0 0 0 0 0 0 0 0 -0 -0 -0 0 0 0 0 0 0 0 0 0 0 0 0 0 0 0 -0 -0 -0 -0 -0 -0 -0 -0 -0 -0 -0 -0 -0 -0 nan
nan 0 0 1 1 1 1 1 1 1 1 1 1 1 1 1 1 1 1 1 1 1 1 1 1 1 1 1 1 0 0 0 0 -0 -0 -0 -0 -0 0 0 0 0 0 0 1 0 0 0 0 0 0 0 0 -0 -0 -0 -0 -0 -0 -0 -0 -0 -0 -0 -0 -0 -0 -0 nan
nan 0 0 0 1 1 1 1 1 1 1 1 1 1 1 1 1 1 1 1 1 1 1 1 1 1 1 1 0 0 -0 -0 -0 -0 -0 -0 0 0 0 1 1 1 1 1 0 0 0 0 0 0 0 0 -0 -0 -0 -0 -0 -0 0 -0 -0 -0 -0 -0 -0 -0 -0 -0 nan
nan 0 0 0 1 1 1 1 1 1 1 1 1 1 1 1 1 1 0 0 0 0 0 0 0 0 0 0 0 -0 -0 -0 0 0 0 0 0 1 1 1 1 1 1 0 0 0 0 0 0 0 0 0 -0 -0 -0 -0 -0 -0 -0 -0 -0 -0 -0 -0 -0 -0 -0 -0 nan
nan 0 0 0 0 0 0 1 1 1 1 1 1 1 1 1 1 1 0 0 0 0 0 0 0 0 0 0 0 0 0 0 1 1 1 1 1 1 1 1 1 1 1 1 1 0 0 0 0 -0 -0 -0 -0 -0 -0 -0 -0 -0 -0 -0 -0 -0 -0 -0 -0 -0 -0 -0 nan
nan 0 0 0 0 0 0 1 1 1 1 1 1 1 1 1 1 1 0 0 1 1 1 1 1 1 1 1 1 1 1 1 1 1 1 1 1 1 1 1 1 1 1 1 1 0 0 -0 -0 -0 -0 -0 -0 -0 -0 0 -0 -0 -0 -0 -0 -0 -0 -0 -0 -0 -0 -0 nan
nan 0 0 0 0 0 1 0 1 1 1 1 1 1 1 0 1 0 1 1 1 1 1 1 1 1 1 1 1 1 1 1 1 1 1 1 1 1 1 1 1 1 1 0 0 0 -0 -0 -0 -0 -0 -0 -0 0 0 0 -0 -0 -0 -0 -0 -0 -0 -0 -0 -0 -0 -0 nan
nan 0 0 0 0 1 1 0 0 0 0 0 0 1 0 1 1 1 1 1 1 1 1 1 1 1 1 1 1 1 1 1 1 1 1 1 1 1 1 1 0 0 0 0 -0 -0 -0 -0 -0 0 -0 0 0 0 0 0 -0 -0 -0 -0 -0 -0 -0 -0 -0 -0 -0 -0 nan
nan 0 0 0 0 1 1 0 0 0 0 0 0 0 0 1 1 1 1 1 1 1 1 1 1 1 1 0 0 1 1 0 0 1 1 1 0 0 0 0 0 0 -0 -0 -0 0 0 0 0 0 0 0 0 0 0 -0 -0 -0 -0 -0 -0 -0 -0 -0 -0 -0 0 -0 nan
nan 0 0 0 0 0 0 0 0 0 0 0 0 0 0 0 1 1 1 1 1 1 1 1 1 1 0 0 0 0 0 0 0 0 0 0 0 0 0 0 0 -0 -0 0 0 0 0 0 0 0 -0 -0 0 0 -0 -0 -0 -0 -0 -0 -0 -0 -0 -0 0 0 0 0 nan
nan 0 0 0 0 0 0 0 0 0 0 0 0 0 0 0 0 1 1 1 1 1 1 1 0 0 0 0 0 0 0 0 0 0 0 0 0 0 0 0 0 -0 0 0 0 0 0 0 0 0 -0 -0 0 0 -0 -0 -0 -0 -0 -0 -0 -0 -0 -0 0 0 0 0 nan
nan 0 0 0 0 0 0 0 0 0 0 0 0 0 0 0 0 0 0 0 0 0 0 0 0 0 0 0 0 0 0 0 0 0 0 0 0 0 0 0 0 0 0 0 0 0 0 0 0 -0 -0 -0 0 -0 -0 -0 -0 -0 -0 -0 -0 -0 -0 0 0 0 0 0 nan
nan 0 0 0 0 0 0 0 0 0 0 0 0 0 0 0 0 0 0 0 0 0 0 0 0 0 0 0 0 0 0 0 0 0 0 0 0 0 0 0 0 0 0 0 0 0 0 0 -0 -0 -0 -0 0 -0 -0 -0 -0 -0 -0 -0 -0 -0 -0 0 0 0 1 1 nan
nan 0 0 0 0 0 0 0 0 0 0 0 0 0 0 0 1 1 0 0 0 0 0 0 0 0 0 0 0 0 0 0 0 0 0 0 1 0 0 0 0 0 0 0 0 0 0 0 -0 -0 -0 0 0 -0 -0 -0 -0 -0 -0 -0 0 0 0 0 0 0 1 1 nan
nan 0 0 0 0 0 0 0 0 0 0 0 0 0 0 1 1 1 0 0 0 0 0 0 0 0 0 1 1 1 1 0 0 0 0 1 1 1 0 0 0 0 0 0 0 0 0 0 -0 -0 -0 0 0 -0 -0 -0 -0 -0 -0 0 0 0 0 0 0 1 1 1 nan
nan 0 0 0 0 0 0 0 0 0 0 0 0 0 0 1 1 1 0 0 0 0 0 0 0 1 1 0 1 1 0 0 0 0 1 1 1 0 0 0 0 0 0 0 0 0 0 -0 -0 -0 -0 -0 0 -0 -0 -0 -0 -0 -0 0 0 0 1 1 1 1 1 1 nan
nan nan nan nan nan nan nan nan nan nan nan nan nan nan nan nan nan nan nan nan nan nan nan nan nan nan nan nan nan nan nan nan nan nan nan nan nan nan nan nan nan nan nan nan nan nan nan nan nan nan nan nan nan nan nan nan nan nan nan nan nan nan nan nan nan nan nan nan nan
Wind_Speed
27 25 24 25 25 25 23 21 18 17 19 22 24 26 28 29 30 31 32 31 27 24 22 21 20 18 18 19 19 16 14 13 13 13 14 14 16 17 18 18 17 16 15 15 16 17 18 18 17 17 17 18 18 19 19 18 18 18 19 20 21 22 22 21 20 19 20 20 20
29 26 26 26 27 26 25 23 20 17 16 18 19 22 26 31 34 37 37 34 27 23 22 22 20 18 17 18 17 15 13 13 14 14 15 16 17 18 19 18 16 14 13 13 14 16 17 17 16 16 16 17 18 18 18 17 18 18 19 21 22 23 23 22 21 20 19 18 17
31 30 28 28 28 28 27 25 21 19 17 18 19 22 26 32 37 38 35 27 22 21 21 20 18 16 15 15 15 13 11 12 14 15 16 15 16 17 16 14 13 13 14 14 15 15 16 15 14 14 15 16 17 17 18 18 18 19 20 21 23 23 22 22 21 19 17 16 16
33 33 31 30 29 28 27 24 21 18 17 17 18 21 25 28 31 29 25 21 19 18 17 16 14 12 11 12 11 9 9 11 14 17 18 16 15 13 11 11 11 12 13 14 15 16 15 14 14 14 15 16 17 18 18 18 18 19 20 20 20 20 20 20 19 18 17 17 17
30 33 32 30 29 27 25 23 20 17 15 14 16 18 20 21 21 20 20 18 17 15 14 12 9 8 9 11 10 10 11 13 16 17 18 18 18 16 12 9 10 11 13 15 15 15 14 14 14 14 15 17 18 18 18 18 17 17 17 16 15 15 16 17 18 18 18 19 19
25 30 32 30 27 25 23 21 18 16 14 15 16 17 18 18 19 19 19 17 16 15 13 12 11 12 14 16 16 16 16 16 16 16 16 18 20 19 15 10 9 11 14 16 15 14 13 12 13 14 15 17 18 19 18 17 16 15 13 12 12 13 14 16 18 19 20 21 21
25 28 29 27 24 22 21 19 17 16 15 16 17 17 17 17 18 19 19 18 18 17 16 16 17 18 19 20 19 18 18 17 15 14 13 14 16 17 15 12 10 12 15 16 16 14 12 12 14 16 17 18 18 18 18 17 16 14 12 11 12 14 16 18 20 21 22 23 24
25 25 25 23 21 20 18 17 17 16 16 17 17 17 17 17 17 18 19 20 20 20 19 20 21 21 21 20 19 18 17 16 15 14 13 14 14 14 13 12 12 13 15 16 16 14 13 14 16 18 19 20 19 19 18 17 16 15 14 14 16 18 20 22 23 24 24 25 26
23 23 23 21 19 17 17 16 15 14 15 16 17 17 17 17 17 17 18 20 20 20 20 20 20 20 19 18 17 16 16 15 15 15 15 15 16 16 16 15 14 13 13 14 14 13 13 16 19 20 21 21 20 20 19 18 18 18 18 19 21 22 23 24 25 26 26 28 29
23 22 21 20 19 17 17 15 13 11 11 13 13 14 14 15 16 15 15 15 16 16 17 17 17 16 15 14 13 13 14 15 16 17 17 18 18 18 17 15 12 10 10 12 13 12 13 17 20 21 22 22 21 20 20 20 19 20 21 23 24 25 25 25 25 26 27 29 31
24 23 21 20 20 19 17 15 12 11 10 11 10 8 10 13 15 14 11 9 9 9 10 12 12 12 11 10 10 12 14 17 19 20 20 20 20 18 16 13 10 8 10 12 13 12 13 15 17 19 20 21 20 20 20 21 20 21 22 23 24 25 25 26 25 25 26 27 28
24 24 23 22 21 20 19 16 14 13 12 12 11 10 10 12 13 13 11 10 9 9 8 9 10 10 10 10 12 15 18 22 22 22 21 21 20 18 15 13 10 9 9 11 12 12 12 12 13 14 15 16 17 19 20 20 21 21 23 24 24 24 23 23 22 21 20 20 20
20 22 23 23 22 22 21 19 16 14 14 13 13 13 15 16 15 14 15 15 13 12 10 10 11 12 13 15 17 21 23 23 21 21 21 21 20 18 16 14 11 10 9 9 10 11 12 12 12 13 14 15 17 19 20 20 21 22 23 24 23 21 19 18 17 16 16 16 16
16 18 19 20 21 21 21 19 17 17 16 15 14 14 16 18 18 18 18 18 16 14 13 12 13 14 15 18 21 23 23 21 20 20 20 21 20 18 17 16 15 13 12 11 10 11 12 13 15 18 19 20 21 22 23 22 22 22 22 22 20 19 17 16 15 15 16 17 18
18 19 19 20 19 19 18 17 15 16 16 17 16 16 16 18 18 19 19 18 17 16 15 14 13 13 13 15 19 21 22 20 20 20 20 21 20 20 19 19 18 17 16 15 14 14 14 15 18 21 23 25 26 26 26 25 24 22 20 18 17 16 16 16 16 16 17 18 19
22 23 23 24 23 22 19 16 14 14 15 16 17 17 18 18 18 19 19 19 18 17 17 16 15 14 13 13 14 17 19 20 20 20 20 21 21 21 21 20 20 20 19 19 19 19 18 18 20 23 25 27 29 28 27 25 23 20 17 15 15 15 15 16 16 17 17 18 20
24 24 25 25 25 23 20 17 15 14 14 15 17 18 19 19 19 19 20 20 20 19 19 18 18 17 16 15 15 16 18 19 20 20 21 22 22 22 21 21 20 20 21 21 21 21 20 21 23 25 27 28 29 28 26 23 20 17 15 14 15 16 16 16 16 17 18 19 19
22 23 24 24 23 21 19 17 15 14 14 15 16 18 19 20 20 20 20 21 21 21 21 21 21 20 19 19 18 18 19 21 21 22 23 23 23 22 21 20 21 21 22 22 21 21 21 22 24 25 26 27 26 25 23 20 17 15 15 16 16 17 17 17 17 17 18 19 19
20 21 21 21 21 20 19 17 15 14 14 15 16 17 19 20 20 21 21 22 22 23 23 23 24 23 22 21 21 21 22 23 24 24 25 25 24 23 22 21 22 22 23 23 23 22 21 21 22 23 23 23 22 21 19 17 16 16 17 17 17 17 17 17 18 18 19 19 19
19 19 20 20 20 20 19 18 17 16 15 15 16 18 19 20 21 22 22 23 23 24 24 25 25 25 24 23 23 24 24 25 25 26 26 26 26 25 24 24 24 24 24 24 24 23 22 21 20 19 19 18 18 17 17 17 17 17 17 17 18 18 18 18 18 19 19 18 17
17 18 19 20 20 20 20 19 17 16 16 16 17 19 21 22 23 23 24 24 24 24 25 25 25 25 25 24 24 25 25 26 26 27 27 28 28 28 27 27 26 26 25 25 24 24 22 21 19 17 16 16 16 16 17 17 17 17 17 18 18 18 18 18 18 18 17 16 15
15 16 17 18 19 19 19 18 17 16 16 17 19 21 22 24 24 24 24 24 24 24 25 25 25 24 24 24 24 24 25 26 26 27 28 29 29 30 29 29 28 27 26 25 24 23 21 19 18 17 16 16 17 17 17 17 17 17 18 18 18 18 18 17 16 15 15 14 14
13 14 15 16 17 17 17 17 17 16 17 18 20 22 23 24 23 23 23 24 24 24 23 23 23 23 23 23 23 24 24 25 26 27 28 29 29 29 29 29 27 26 25 24 22 21 19 18 17 17 17 17 17 17 17 17 17 17 18 18 17 17 16 15 14 14 13 14 14
12 12 13 14 15 15 15 16 16 16 17 19 21 22 23 23 22 22 22 23 23 23 22 22 21 22 22 22 23 23 24 25 25 26 27 27 28 28 27 26 25 24 23 21 20 19 18 18 18 18 18 18 17 17 17 17 17 17 17 17 16 15 14 13 13 13 14 14 15
10 11 12 12 13 13 14 14 15 16 17 19 20 21 22 21 21 21 21 22 22 22 22 21 21 21 22 22 23 23 24 25 26 26 26 26 26 26 25 24 23 21 20 19 18 18 18 18 18 17 17 17 17 17 17 17 16 16 15 15 14 13 13 13 13 14 14 15 16
10 10 11 11 12 12 13 14 15 16 17 18 19 19 19 19 19 20 20 21 21 21 21 21 21 22 22 23 24 25 26 26 27 27 26 26 25 25 24 22 21 20 19 18 18 17 17 17 17 17 17 16 16 16 16 16 15 14 14 13 13 13 14 14 15 15 16 16 16
10 10 10 11 11 11 12 14 15 16 16 17 17 17 17 17 18 18 19 20 20 21 21 21 22 22 23 24 25 26 26 27 27 26 25 25 24 23 22 21 20 19 19 18 17 17 17 17 16 16 16 16 16 15 15 14 14 13 13 14 14 14 15 15 16 16 16 17 17
10 10 10 10 10 11 12 13 14 15 15 16 16 15 15 16 16 17 17 18 19 20 20 21 22 23 24 25 26 26 26 25 25 24 24 23 22 21 20 20 20 19 19 18 18 17 17 17 16 16 16 15 15 14 14 14 13 13 14 14 15 15 16 16 16 16 17 17 18
10 10 10 10 10 11 11 12 13 14 15 15 15 15 15 15 16 16 17 17 18 18 19 21 22 23 24 24 25 24 24 24 23 22 22 21 21 20 20 20 20 19 19 18 18 17 17 17 17 16 16 15 15 14 14 13 13 13 14 14 15 15 16 16 16 17 17 18 19
11 11 11 11 10 11 11 11 12 13 14 15 15 15 15 15 16 16 16 17 17 18 19 20 21 22 23 23 23 23 23 22 22 21 21 21 20 20 20 20 19 19 18 18 18 17 17 17 17 16 16 15 15 14 13 13 13 13 13 14 14 15 15 16 16 17 18 19 20
11 11 11 11 11 11 11 11 11 12 13 14 14 15 15 15 16 16 17 17 17 18 19 20 20 21 21 22 22 22 22 21 21 21 21 20 20 20 20 20 19 19 19 18 18 18 17 17 16 16 15 14 14 13 12 12 12 12 13 13 14 15 15 16 17 17 18 20 21
11 11 11 11 11 11 11 11 11 11 12 13 14 15 15 15 16 16 17 17 18 18 19 19 20 20 20 21 21 21 21 21 21 20 20 20 20 20 20 20 20 19 19 19 18 18 17 16 15 14 14 13 12 12 11 11 11 12 12 13 14 15 16 16 17 18 19 20 21
12 12 12 12 12 11 11 11 11 11 12 13 14 14 15 15 16 16 17 17 17 18 18 19 19 19 20 20 20 20 20 20 20 20 20 20 20 20 20 20 20 20 19 19 18 17 16 15 14 13 13 12 11 11 11 11 11 12 13 14 15 15 16 17 18 19 20 20 21
13 12 12 12 12 12 11 11 11 12 12 13 14 14 15 15 15 16 16 16 17 18 18 18 19 19 19 19 20 20 20 20 20 20 20 20 20 21 21 21 20 20 19 18 17 16 15 14 13 13 12 12 11 11 11 11 12 13 13 14 15 16 17 17 18 19 19 20 21
13 13 13 12 12 12 11 11 11 12 13 13 14 15 15 15 15 15 15 16 16 17 18 18 19 19 19 19 19 19 20 20 20 20 20 21 21 21 21 21 20 19 18 17 16 15 14 14 13 13 12 12 11 11 11 12 13 13 14 15 16 17 17 18 18 19 19 20 20
15 14 14 13 13 12 12 11 11 12 13 13 14 15 15 15 15 15 15 16 16 17 18 18 19 19 19 19 19 19 20 20 20 20 21 21 21 21 21 20 19 18 17 16 15 15 14 14 13 13 13 12 12 12 12 13 13 14 15 16 16 17 18 18 18 19 19 19 19
16 15 15 14 14 13 12 12 12 12 12 13 14 15 15 15 15 15 15 16 16 17 17 18 18 19 19 19 19 19 19 20 20 21 21 21 21 21 20 19 19 18 17 16 15 15 14 14 14 14 13 13 13 13 13 14 14 15 16 16 17 17 18 18 18 19 18 18 17
17 17 16 16 15 14 13 13 12 11 11 12 13 14 15 16 16 16 16 16 16 17 17 17 18 18 18 18 18 19 19 20 21 21 21 21 21 20 19 19 18 18 17 16 16 15 15 14 14 14 14 14 13 13 14 15 15 16 16 17 17 18 18 18 18 18 18 17 16
17 17 17 17 16 16 15 14 13 12 11 11 12 14 15 16 16 16 16 16 16 16 16 17 17 17 18 18 18 19 19 20 21 21 21 21 20 20 19 19 18 18 18 17 16 16 15 15 15 15 15 14 14 14 15 15 16 16 17 17 17 18 18 18 18 18 17 16 14
16 17 18 18 18 17 16 15 14 12 12 11 12 12 14 15 15 15 15 15 15 16 16 16 17 17 17 18 18 19 19 20 20 21 21 21 20 20 19 19 19 18 18 18 17 16 16 16 16 16 16 15 15 15 15 16 16 17 17 17 18 18 18 18 18 18 16 14 13
16 17 18 18 18 18 17 16 15 14 13 12 11 11 12 13 15 15 15 15 16 16 16 17 17 18 18 18 18 19 19 20 20 20 21 20 20 20 19 19 19 19 19 19 18 17 17 17 17 17 16 16 16 16 16 16 17 17 17 18 18 18 18 18 18 17 16 14 12
Wind_Direction
218 217 219 220 219 218 218 221 224 223 217 213 213 215 220 227 235 244 250 253 247 240 239 243 242 238 236 241 242 241 238 234 231 230 230 231 232 233 234 237 241 240 234 226 223 229 239 244 234 223 216 216 220 224 226 225 225 224 224 225 225 226 226 227 229 234 240 247 251
215 212 212 212 210 207 208 212 220 224 221 213 210 212 218 225 231 238 244 245 240 235 236 240 240 235 230 231 233 234 233 232 233 232 231 230 230 230 231 232 233 232 231 229 228 231 237 240 231 221 215 214 216 219 222 224 225 224 224 224 224 224 225 227 230 234 240 245 250
213 209 206 205 202 201 203 209 218 225 224 218 214 213 216 221 227 232 235 235 231 230 232 235 234 231 229 230 231 232 234 235 236 235 232 228 225 224 224 224 224 225 227 229 232 235 235 232 223 215 210 210 212 214 216 218 220 220 220 221 223 224 227 230 236 240 244 246 249
213 210 206 204 202 202 206 213 222 226 223 218 217 217 218 220 223 225 227 229 230 230 229 227 222 219 224 232 236 238 241 243 243 240 235 231 226 222 218 217 220 222 226 230 235 235 231 223 214 208 204 203 203 203 205 207 209 211 214 220 225 229 234 239 245 249 251 251 251
219 216 212 210 209 211 215 221 224 222 218 217 220 221 221 220 221 223 226 230 231 231 227 221 215 218 229 240 247 250 252 252 250 246 242 241 239 238 234 227 220 221 226 231 234 232 226 218 210 204 199 195 191 188 189 193 197 202 210 220 229 236 242 248 253 256 258 258 257
229 223 219 217 216 219 222 224 221 217 215 219 221 221 220 219 219 221 224 225 224 223 225 230 236 242 245 246 247 247 248 251 253 252 249 248 247 247 245 240 227 224 228 234 235 232 223 213 207 203 198 190 183 179 179 182 189 198 209 222 233 239 243 249 255 258 261 263 263
232 223 219 220 221 221 221 220 219 217 217 215 213 213 215 216 218 218 217 215 212 214 220 229 236 239 239 238 237 237 241 246 249 250 247 244 246 247 248 244 225 222 231 239 242 239 226 209 202 196 190 185 178 175 175 180 188 199 214 229 240 245 246 247 248 251 255 259 261
233 226 223 226 227 224 218 214 216 218 214 208 207 209 214 218 218 215 212 208 204 204 209 215 220 223 225 226 227 230 235 243 247 247 240 232 231 232 231 226 218 222 233 244 247 241 224 205 197 189 183 179 177 179 184 190 196 203 211 222 231 237 239 240 240 241 245 250 255
239 236 234 233 230 222 214 210 207 207 207 206 208 212 217 220 219 215 210 206 200 198 199 202 206 210 214 218 223 228 236 246 252 249 238 224 218 216 217 218 220 226 236 246 246 235 215 201 195 189 185 183 184 188 195 203 206 208 210 214 218 224 228 231 233 234 238 245 252
243 242 241 240 238 229 215 204 193 192 200 209 215 223 228 230 227 220 213 208 203 200 198 199 202 207 212 220 228 238 246 253 256 250 238 224 216 215 218 223 228 236 241 243 239 226 207 198 195 192 191 192 195 199 205 210 213 215 216 216 217 219 222 224 226 229 234 243 251
241 243 244 245 247 242 227 210 210 211 208 205 203 217 235 238 236 233 230 227 225 221 217 216 218 221 227 237 249 256 258 255 251 244 234 224 219 220 224 231 238 242 240 237 233 222 207 195 192 194 198 202 206 211 215 219 220 222 223 223 223 223 223 223 225 229 236 245 253
235 239 243 246 249 249 245 235 232 228 218 202 193 196 206 212 221 230 238 243 245 248 251 252 251 251 253 257 258 254 250 247 243 238 231 226 224 225 229 235 243 246 241 234 230 224 215 205 199 202 209 215 219 223 227 228 229 229 230 232 233 234 233 232 233 238 244 250 257
230 234 239 242 244 247 250 249 244 237 228 215 207 203 200 197 202 213 222 226 229 235 244 250 250 248 246 245 242 239 239 240 239 236 232 230 230 230 232 236 243 248 245 236 229 227 226 227 231 236 239 240 239 239 239 239 239 239 238 239 243 246 247 245 247 251 254 257 259
237 240 242 243 243 244 246 246 243 237 232 226 219 209 201 198 200 206 211 213 215 219 224 228 230 232 233 235 234 235 237 240 239 236 233 232 233 233 233 235 239 242 240 232 224 223 228 239 249 253 251 246 245 245 246 247 247 246 245 245 248 252 255 256 257 259 260 260 259
251 253 255 256 255 253 249 245 238 231 227 226 223 216 208 205 206 207 208 207 207 208 211 214 217 220 225 230 235 238 241 241 238 235 233 233 234 233 233 233 233 232 228 220 214 213 220 235 251 253 248 240 239 243 247 250 251 251 251 252 254 255 256 257 257 258 258 258 258
249 251 254 256 257 256 253 248 240 230 223 223 223 222 219 216 216 215 212 207 203 202 203 205 205 206 210 218 229 237 241 241 238 235 234 234 234 234 233 231 229 225 220 213 209 208 213 225 239 244 241 237 239 244 249 252 254 254 256 257 258 258 257 257 256 256 256 256 255
240 241 243 244 245 246 245 241 236 227 221 219 221 223 225 225 225 223 219 212 206 202 200 199 200 201 204 208 218 229 236 239 238 237 236 235 235 234 233 231 228 225 221 216 213 212 215 221 229 234 236 238 242 247 252 254 256 257 258 259 259 258 257 257 257 257 256 255 254
233 234 234 234 235 235 234 231 227 221 217 216 217 221 224 226 227 226 222 217 211 206 202 200 201 202 204 207 213 221 229 234 237 237 237 236 236 235 234 232 231 230 228 225 223 223 223 224 227 231 235 239 244 248 252 254 255 256 257 257 257 257 257 258 258 257 255 254 254
235 234 234 233 233 233 232 230 226 221 216 212 211 214 218 221 223 223 221 217 214 211 209 207 207 206 207 209 214 219 225 229 232 235 236 236 237 237 237 237 236 236 235 235 235 235 235 234 233 234 237 241 244 246 248 249 250 251 252 253 255 256 257 257 256 255 254 254 255
239 238 238 237 237 237 236 234 230 225 218 211 207 207 209 213 215 216 215 214 213 213 214 214 214 213 212 213 217 222 225 227 230 232 235 237 239 241 242 242 242 242 241 241 242 244 245 245 244 243 243 242 242 242 242 243 245 247 249 250 252 253 253 254 253 253 254 255 258
242 241 240 240 240 239 238 236 233 226 218 210 204 202 203 205 207 208 210 211 212 214 216 218 219 219 218 218 221 225 228 229 230 232 235 237 240 242 244 245 245 246 246 246 248 249 251 252 251 249 246 242 239 239 240 241 243 245 246 248 249 249 250 250 251 253 256 260 264
247 244 242 242 241 240 239 237 233 226 217 208 202 199 198 199 200 203 207 210 212 214 216 218 220 221 221 222 224 227 230 232 233 234 236 237 240 241 243 244 246 248 248 250 251 252 253 252 249 246 242 239 238 238 239 241 242 244 245 246 247 247 248 250 252 256 261 267 272
254 249 246 243 242 241 239 236 231 223 213 204 198 196 194 194 196 200 205 209 213 215 216 217 218 220 221 223 225 228 230 232 233 234 235 236 237 239 241 243 245 247 248 248 249 248 247 244 240 237 236 235 236 238 239 240 242 242 243 244 245 246 249 252 257 262 268 272 276
261 254 248 244 241 238 234 230 224 216 207 199 195 192 191 190 194 199 205 210 214 216 217 217 218 221 223 225 226 228 229 231 232 233 233 234 235 237 239 241 243 244 243 241 239 237 234 232 231 231 232 234 236 238 239 240 240 240 241 242 245 248 253 258 263 267 271 274 277
263 254 247 241 236 231 224 217 211 205 199 194 191 190 189 189 193 200 206 210 214 216 217 219 220 223 225 226 227 228 229 230 230 231 232 234 235 236 238 238 239 238 235 231 228 226 225 226 227 230 232 235 236 237 238 238 238 239 241 245 249 254 260 264 268 271 273 276 278
265 253 243 236 231 222 212 204 198 195 192 190 189 189 189 190 193 198 203 207 210 212 214 216 219 221 224 225 226 226 227 228 229 231 232 233 234 235 235 234 232 230 228 225 223 222 224 226 228 230 232 234 234 235 236 236 238 242 246 251 256 261 265 268 271 272 274 277 279
267 253 243 238 229 217 207 199 194 190 189 189 188 189 190 192 194 197 200 203 205 207 210 212 215 217 219 221 223 225 226 227 229 230 231 231 231 231 230 228 226 225 223 223 223 224 226 227 229 230 231 231 232 234 236 239 243 247 253 257 261 263 266 269 271 273 275 278 281
268 256 247 240 228 218 209 202 196 192 190 190 190 191 192 194 196 198 200 203 205 207 209 211 213 216 218 220 222 224 226 227 228 228 228 227 226 225 224 222 222 222 222 223 224 225 226 226 226 227 227 228 230 233 238 242 247 252 256 259 262 264 266 268 271 274 277 281 284
267 259 250 240 230 222 215 208 202 198 195 194 194 195 196 197 198 200 203 205 207 209 211 213 215 217 219 221 222 223 224 225 225 224 223 222 221 220 219 220 220 221 222 222 223 223 223 223 223 224 225 226 229 234 239 244 249 253 257 260 263 265 268 270 273 277 281 284 287
265 258 249 240 233 227 221 215 210 206 203 201 201 202 202 202 203 204 206 208 210 212 214 215 217 218 220 221 221 221 221 221 220 220 219 218 217 217 218 219 220 220 220 220 219 219 220 220 222 224 225 228 231 235 240 246 251 255 259 263 266 269 272 275 278 282 285 287 288
261 255 249 242 236 230 226 221 217 214 212 210 209 209 208 208 208 208 209 210 212 213 215 216 217 218 219 219 219 219 218 218 217 217 216 217 217 218 218 219 219 218 217 217 216 217 218 220 223 226 228 231 235 239 245 250 256 261 265 269 272 275 277 280 284 286 288 289 289
256 253 248 243 237 232 229 226 222 220 218 217 215 214 213 212 212 211 211 211 212 214 215 216 216 216 217 217 217 216 216 216 216 216 217 217 218 218 218 218 217 215 214 214 215 217 219 222 225 228 232 235 239 245 252 259 264 269 273 276 278 281 283 285 287 289 290 290 290
251 249 246 242 237 234 231 228 226 224 223 222 219 217 215 214 213 213 212 211 212 214 215 215 215 215 216 216 216 216 216 216 217 217 218 218 218 217 216 216 214 214 214 215 216 219 221 224 228 231 235 239 245 252 260 266 272 276 279 281 283 285 286 288 289 289 290 290 290
245 244 242 239 235 232 230 228 227 227 226 224 222 219 216 215 214 213 212 212 213 213 214 214 214 215 215 216 216 217 217 218 218 219 219 218 217 216 215 214 214 214 215 217 219 222 225 228 232 236 240 245 251 259 266 273 277 281 283 285 286 287 288 289 289 289 289 289 289
240 238 236 234 231 229 227 226 227 227 227 226 224 221 218 216 215 214 214 214 213 213 213 213 213 213 214 215 216 217 218 219 220 219 219 218 216 215 214 215 216 217 219 221 223 226 229 233 237 241 246 251 258 265 271 277 281 284 286 287 288 289 289 289 289 288 288 288 289
237 234 231 228 226 223 222 222 224 226 227 226 225 222 219 217 216 215 215 215 215 214 214 213 213 213 214 215 216 217 219 220 220 219 218 217 216 215 216 217 219 221 223 226 228 232 235 238 243 247 251 256 262 269 274 278 282 285 286 288 289 289 289 288 287 287 287 287 287
236 232 228 225 222 220 218 218 220 223 225 226 225 223 221 219 218 217 216 216 216 216 215 214 214 215 215 216 218 219 220 220 220 219 218 217 217 217 219 221 223 226 228 231 234 237 240 244 247 251 255 260 266 271 276 279 282 284 286 287 287 287 286 285 284 284 284 284 284
239 233 228 224 221 218 216 216 217 219 222 224 224 223 221 220 219 218 218 218 218 218 217 217 217 217 218 219 220 221 222 222 221 220 219 219 220 221 223 226 228 231 233 235 238 241 244 248 251 255 258 263 268 273 276 279 281 283 285 285 285 285 283 282 281 281 281 279 278
243 236 230 225 221 218 216 215 214 216 219 222 223 223 222 220 219 219 219 220 220 221 221 220 220 221 221 222 222 223 223 223 223 223 222 222 223 225 227 230 233 235 237 239 241 244 247 250 254 257 260 264 268 273 276 279 280 282 283 283 282 281 279 278 277 277 277 274 271
248 240 234 228 224 220 217 214 214 214 217 220 221 222 221 220 219 218 218 220 222 223 223 223 223 224 224 224 224 224 225 225 225 225 225 226 227 230 232 234 236 239 240 242 244 247 249 252 255 258 261 265 269 272 275 278 279 280 280 280 278 276 274 273 273 273 272 269 264
252 245 238 232 227 222 219 216 215 215 216 217 219 220 220 219 217 216 216 218 221 223 224 225 225 226 226 227 226 226 227 227 228 228 229 229 231 233 235 237 239 241 243 244 246 248 250 253 256 259 262 265 269 272 275 277 278 278 278 276 274 271 269 268 268 270 269 264 257
Height
1497 1497 1498 1498 1498 1499 1499 1500 1501 1501 1502 1503 1504 1505 1507 1508 1509 1510 1512 1513 1513 1513 1513 1514 1513 1513 1514 1515 1516 1516 1516 1516 1516 1517 1517 1518 1518 1518 1518 1518 1518 1518 1519 1519 1521 1523 1524 1524 1524 1525 1526 1527 1528 1529 1531 1532 1533 1533 1534 1535 1535 1536 1536 1537 1538 1538 1539 1540 1540
1495 1496 1497 1497 1497 1497 1498 1498 1499 1500 1501 1501 1502 1503 1504 1506 1508 1510 1511 1512 1512 1512 1512 1512 1512 1511 1512 1513 1514 1514 1514 1515 1515 1515 1515 1516 1516 1517 1517 1517 1517 1518 1518 1519 1520 1522 1523 1523 1524 1525 1525 1526 1527 1528 1529 1530 1531 1532 1533 1533 1534 1534 1535 1536 1536 1537 1538 1538 1538
1493 1494 1495 1495 1496 1496 1496 1496 1497 1498 1499 1500 1500 1501 1503 1504 1506 1508 1509 1509 1509 1509 1509 1509 1509 1510 1510 1511 1512 1513 1513 1513 1514 1514 1514 1513 1514 1515 1516 1516 1517 1517 1518 1519 1520 1521 1522 1523 1523 1524 1525 1525 1526 1527 1528 1529 1530 1530 1531 1532 1533 1533 1534 1534 1535 1535 1536 1536 1537
1491 1492 1493 1493 1494 1495 1495 1495 1496 1497 1498 1498 1499 1500 1501 1503 1504 1505 1506 1506 1506 1506 1507 1507 1507 1508 1509 1510 1511 1511 1512 1512 1513 1513 1513 1513 1513 1514 1515 1515 1516 1517 1517 1518 1519 1520 1521 1521 1522 1523 1523 1523 1524 1525 1526 1527 1528 1529 1530 1531 1532 1532 1533 1533 1533 1533 1534 1534 1535
1488 1489 1491 1492 1494 1494 1495 1495 1496 1496 1497 1498 1498 1499 1500 1502 1503 1503 1504 1503 1503 1504 1505 1506 1506 1506 1508 1509 1510 1511 1511 1512 1512 1512 1512 1513 1513 1513 1513 1514 1515 1516 1517 1517 1518 1518 1519 1520 1520 1521 1521 1522 1522 1523 1524 1525 1526 1527 1528 1529 1530 1531 1531 1531 1532 1532 1532 1533 1533
1487 1487 1489 1491 1493 1493 1494 1495 1495 1496 1496 1497 1498 1498 1499 1500 1501 1502 1502 1503 1503 1503 1503 1504 1505 1506 1507 1508 1509 1510 1511 1511 1511 1511 1511 1512 1513 1513 1513 1513 1513 1515 1516 1516 1516 1517 1518 1518 1519 1519 1520 1520 1520 1521 1522 1523 1524 1525 1527 1528 1528 1529 1530 1530 1530 1530 1531 1531 1532
1484 1485 1487 1489 1491 1493 1494 1494 1495 1495 1496 1496 1497 1497 1498 1499 1499 1500 1501 1501 1501 1501 1502 1503 1504 1505 1506 1507 1508 1508 1509 1509 1509 1510 1510 1510 1511 1512 1512 1512 1513 1514 1515 1515 1515 1516 1517 1518 1518 1518 1519 1519 1519 1520 1521 1522 1523 1524 1525 1526 1527 1528 1529 1529 1530 1530 1530 1530 1530
1483 1484 1485 1487 1489 1491 1492 1493 1494 1494 1495 1495 1496 1496 1497 1498 1498 1498 1499 1499 1500 1500 1500 1501 1502 1503 1504 1505 1506 1507 1507 1508 1508 1508 1508 1509 1509 1510 1511 1512 1513 1513 1513 1514 1514 1514 1515 1516 1517 1517 1517 1518 1519 1520 1520 1521 1522 1523 1523 1525 1526 1527 1527 1528 1529 1529 1529 1529 1529
1483 1483 1484 1485 1486 1487 1489 1491 1492 1493 1493 1494 1495 1495 1496 1497 1497 1498 1498 1498 1498 1498 1499 1499 1500 1502 1503 1503 1504 1505 1505 1506 1507 1507 1507 1507 1508 1509 1510 1510 1511 1512 1512 1512 1513 1513 1514 1515 1515 1516 1516 1517 1518 1519 1520 1520 1521 1521 1522 1523 1523 1524 1525 1526 1527 1528 1528 1528 1528
1482 1483 1484 1485 1485 1485 1486 1488 1490 1491 1492 1493 1493 1495 1496 1496 1497 1497 1497 1498 1498 1498 1498 1499 1499 1500 1501 1502 1503 1503 1504 1505 1505 1505 1506 1506 1507 1507 1508 1509 1509 1510 1510 1511 1511 1512 1513 1513 1514 1514 1515 1516 1517 1518 1518 1519 1519 1520 1520 1520 1521 1522 1523 1524 1525 1527 1528 1528 1527
1481 1482 1483 1484 1485 1484 1484 1484 1487 1489 1490 1491 1492 1494 1495 1496 1496 1497 1498 1498 1498 1498 1498 1499 1499 1500 1500 1501 1502 1502 1503 1503 1504 1504 1504 1505 1505 1506 1507 1508 1508 1508 1509 1510 1511 1511 1512 1512 1513 1513 1514 1515 1516 1517 1518 1518 1518 1518 1519 1519 1519 1520 1521 1522 1523 1525 1526 1527 1526
1479 1480 1481 1483 1483 1483 1483 1483 1484 1486 1488 1489 1490 1491 1492 1493 1494 1496 1497 1497 1498 1498 1498 1498 1499 1499 1500 1500 1501 1502 1502 1502 1502 1502 1503 1503 1504 1505 1506 1506 1507 1507 1508 1509 1509 1510 1511 1512 1512 1513 1514 1515 1515 1516 1516 1517 1517 1517 1518 1518 1518 1518 1519 1520 1521 1522 1523 1524 1524
1478 1478 1479 1480 1482 1483 1483 1483 1484 1485 1487 1488 1488 1489 1489 1490 1492 1493 1494 1494 1495 1495 1496 1497 1497 1498 1498 1498 1499 1499 1499 1500 1500 1501 1502 1503 1503 1503 1504 1505 1505 1506 1507 1508 1508 1509 1510 1510 1511 1512 1513 1513 1514 1515 1515 1515 1515 1515 1516 1516 1516 1516 1517 1518 1518 1520 1521 1521 1522
1477 1478 1478 1479 1480 1481 1482 1483 1484 1485 1485 1486 1487 1487 1488 1489 1489 1490 1491 1492 1492 1492 1493 1493 1493 1494 1495 1496 1496 1496 1497 1498 1499 1500 1500 1501 1501 1502 1503 1503 1504 1505 1506 1507 1507 1508 1508 1509 1509 1510 1511 1512 1512 1513 1513 1513 1513 1513 1514 1514 1514 1515 1515 1516 1517 1518 1518 1519 1520
1476 1476 1477 1478 1478 1479 1480 1481 1482 1483 1484 1484 1485 1485 1486 1487 1488 1488 1489 1489 1490 1490 1491 1491 1491 1492 1493 1494 1494 1495 1495 1496 1497 1498 1498 1499 1500 1501 1501 1502 1503 1504 1505 1506 1506 1507 1507 1508 1508 1508 1509 1509 1509 1510 1510 1511 1511 1512 1512 1512 1513 1513 1514 1514 1515 1516 1516 1517 1518
1474 1475 1476 1477 1478 1478 1479 1479 1480 1481 1482 1483 1483 1484 1484 1485 1486 1487 1487 1488 1488 1488 1488 1489 1490 1491 1491 1492 1493 1493 1493 1494 1495 1496 1497 1498 1498 1499 1499 1500 1501 1502 1503 1504 1505 1505 1505 1506 1506 1506 1506 1506 1507 1507 1508 1508 1509 1509 1510 1510 1511 1512 1512 1513 1513 1514 1515 1515 1516
1473 1473 1474 1475 1476 1477 1477 1478 1478 1479 1480 1481 1481 1482 1483 1483 1484 1485 1486 1486 1486 1486 1487 1487 1488 1489 1489 1490 1490 1491 1491 1492 1493 1494 1495 1495 1496 1497 1497 1498 1499 1500 1501 1502 1502 1503 1503 1503 1503 1504 1504 1504 1505 1505 1506 1506 1507 1507 1508 1508 1509 1510 1510 1511 1512 1512 1513 1514 1514
1470 1471 1472 1472 1473 1474 1475 1476 1477 1477 1478 1479 1479 1480 1481 1482 1482 1483 1484 1484 1485 1485 1485 1486 1486 1487 1488 1488 1488 1489 1490 1490 1491 1492 1493 1493 1494 1494 1495 1496 1496 1497 1498 1499 1500 1501 1501 1501 1501 1502 1502 1503 1503 1504 1504 1505 1505 1506 1506 1507 1508 1508 1509 1509 1510 1511 1511 1512 1513
1469 1469 1470 1471 1472 1473 1473 1474 1475 1476 1477 1477 1478 1478 1479 1480 1480 1481 1482 1483 1483 1483 1484 1484 1485 1485 1486 1486 1487 1488 1488 1489 1490 1490 1491 1492 1492 1493 1493 1494 1494 1495 1496 1497 1498 1498 1499 1499 1500 1500 1501 1502 1502 1503 1503 1503 1504 1504 1505 1506 1506 1507 1507 1508 1508 1509 1510 1510 1511
1468 1468 1468 1469 1470 1471 1472 1473 1473 1474 1475 1475 1476 1477 1477 1478 1479 1479 1480 1481 1481 1482 1483 1483 1483 1483 1484 1484 1485 1486 1487 1488 1488 1489 1490 1490 1491 1491 1491 1492 1492 1493 1493 1494 1495 1496 1497 1498 1498 1499 1500 1500 1501 1501 1502 1502 1502 1503 1503 1504 1505 1505 1506 1507 1507 1508 1508 1509 1508
1467 1467 1467 1468 1468 1469 1470 1471 1472 1472 1473 1473 1474 1475 1475 1476 1477 1477 1478 1479 1479 1480 1481 1481 1482 1482 1483 1483 1484 1485 1485 1486 1487 1488 1488 1489 1489 1489 1490 1490 1490 1491 1491 1493 1493 1494 1495 1496 1497 1497 1498 1499 1499 1500 1500 1500 1501 1501 1502 1503 1503 1504 1505 1505 1506 1506 1507 1506 1506
1465 1466 1466 1467 1467 1468 1468 1469 1470 1470 1471 1472 1472 1473 1473 1474 1475 1475 1476 1477 1478 1478 1479 1479 1480 1481 1481 1482 1483 1483 1484 1485 1486 1487 1487 1487 1488 1488 1488 1488 1488 1489 1490 1491 1492 1493 1493 1494 1495 1495 1496 1497 1497 1498 1498 1499 1499 1500 1501 1501 1502 1503 1503 1504 1504 1504 1504 1504 1504
1464 1465 1465 1465 1466 1466 1467 1467 1468 1468 1469 1470 1470 1471 1472 1472 1473 1474 1475 1476 1477 1477 1478 1478 1478 1479 1480 1480 1482 1483 1483 1484 1485 1485 1485 1485 1485 1486 1486 1487 1487 1488 1489 1490 1491 1492 1492 1493 1493 1494 1494 1495 1495 1496 1497 1497 1498 1499 1499 1500 1501 1501 1502 1502 1502 1502 1502 1502 1502
1463 1463 1464 1464 1465 1465 1465 1466 1466 1467 1468 1468 1468 1469 1470 1470 1471 1473 1473 1474 1475 1475 1476 1477 1477 1478 1478 1479 1480 1481 1482 1482 1483 1483 1483 1483 1483 1484 1484 1485 1486 1487 1488 1489 1490 1490 1491 1491 1492 1492 1493 1493 1494 1494 1495 1496 1497 1498 1498 1499 1499 1500 1500 1500 1500 1500 1500 1500 1500
1462 1462 1463 1463 1463 1464 1464 1464 1465 1465 1466 1467 1467 1468 1468 1469 1470 1471 1472 1472 1473 1474 1474 1475 1476 1476 1477 1478 1478 1479 1480 1480 1480 1481 1481 1482 1482 1483 1483 1484 1485 1486 1486 1487 1488 1488 1489 1489 1490 1490 1491 1492 1493 1493 1494 1495 1496 1496 1497 1498 1498 1498 1498 1498 1498 1498 1498 1498 1498
1461 1461 1461 1462 1462 1462 1463 1463 1463 1464 1464 1465 1466 1466 1467 1468 1468 1469 1470 1471 1471 1472 1473 1474 1474 1475 1476 1476 1477 1477 1478 1478 1478 1479 1480 1480 1481 1481 1482 1483 1483 1484 1485 1486 1486 1487 1487 1488 1488 1489 1490 1491 1492 1492 1493 1494 1494 1495 1495 1495 1496 1496 1496 1496 1496 1496 1496 1496 1496
1460 1460 1460 1460 1461 1461 1461 1462 1462 1463 1463 1464 1464 1465 1466 1466 1467 1468 1468 1469 1470 1471 1472 1472 1473 1473 1474 1474 1475 1475 1476 1476 1477 1478 1478 1479 1479 1480 1481 1481 1482 1483 1483 1484 1484 1485 1486 1487 1487 1488 1489 1490 1490 1491 1492 1492 1493 1493 1493 1493 1494 1494 1494 1494 1494 1494 1494 1494 1494
1459 1459 1459 1459 1459 1460 1460 1460 1461 1461 1462 1463 1463 1464 1464 1465 1466 1467 1467 1468 1469 1469 1470 1471 1471 1472 1473 1473 1473 1474 1474 1475 1475 1476 1477 1477 1478 1478 1479 1480 1480 1481 1482 1483 1483 1484 1485 1485 1486 1487 1488 1488 1489 1490 1490 1491 1491 1491 1492 1492 1492 1492 1493 1493 1493 1493 1493 1493 1492
1458 1458 1458 1458 1458 1458 1459 1459 1460 1460 1461 1461 1462 1463 1463 1464 1465 1465 1466 1467 1468 1468 1469 1469 1470 1470 1471 1471 1472 1472 1473 1473 1474 1474 1475 1476 1476 1477 1478 1478 1479 1480 1481 1481 1482 1483 1484 1484 1485 1486 1487 1488 1488 1488 1489 1489 1489 1490 1490 1490 1490 1491 1491 1491 1491 1491 1491 1491 1490
1457 1457 1457 1457 1457 1457 1458 1458 1458 1459 1459 1460 1461 1461 1462 1463 1463 1464 1465 1465 1466 1467 1467 1468 1468 1469 1469 1470 1470 1471 1471 1472 1472 1473 1473 1474 1475 1476 1476 1477 1478 1479 1479 1480 1481 1482 1483 1483 1484 1485 1485 1486 1487 1487 1487 1488 1488 1488 1488 1488 1488 1489 1489 1489 1489 1489 1489 1488 1488
1456 1456 1456 1456 1456 1456 1456 1457 1457 1458 1458 1458 1459 1460 1461 1461 1462 1463 1463 1464 1464 1465 1466 1466 1467 1467 1468 1468 1469 1469 1470 1470 1471 1472 1472 1473 1474 1474 1475 1476 1477 1478 1478 1479 1480 1481 1482 1482 1483 1483 1484 1484 1485 1485 1486 1486 1486 1486 1486 1487 1487 1487 1487 1487 1487 1487 1487 1486 1486
1455 1455 1455 1455 1455 1455 1455 1456 1456 1456 1457 1457 1458 1459 1459 1460 1461 1461 1462 1462 1463 1463 1464 1464 1465 1466 1466 1467 1467 1468 1468 1469 1470 1470 1471 1472 1473 1473 1474 1475 1476 1477 1478 1478 1479 1480 1480 1481 1481 1482 1482 1483 1483 1483 1484 1484 1484 1484 1484 1484 1484 1485 1485 1485 1485 1485 1484 1484 1484
1453 1453 1453 1453 1453 1454 1454 1454 1455 1455 1456 1456 1457 1458 1458 1459 1459 1460 1460 1461 1461 1462 1462 1463 1463 1464 1464 1465 1466 1466 1467 1468 1468 1469 1470 1471 1471 1472 1473 1474 1475 1476 1476 1477 1478 1478 1479 1479 1480 1480 1480 1481 1481 1482 1482 1482 1482 1482 1482 1482 1483 1483 1483 1483 1483 1483 1483 1482 1482
1452 1452 1452 1452 1453 1453 1453 1453 1454 1454 1455 1455 1456 1456 1457 1457 1458 1458 1459 1459 1460 1460 1461 1461 1462 1463 1463 1464 1464 1465 1466 1466 1467 1468 1468 1469 1470 1471 1472 1473 1473 1474 1475 1476 1476 1477 1477 1478 1478 1478 1479 1479 1479 1480 1480 1480 1480 1480 1480 1480 1480 1481 1481 1481 1481 1481 1481 1480 1480
1451 1451 1451 1451 1452 1452 1452 1453 1453 1453 1453 1454 1454 1455 1455 1456 1457 1457 1458 1458 1458 1459 1459 1460 1460 1461 1461 1462 1463 1463 1464 1465 1466 1467 1467 1468 1469 1470 1470 1471 1472 1473 1473 1474 1474 1475 1476 1476 1476 1477 1477 1477 1478 1478 1478 1478 1478 1478 1478 1478 1478 1478 1478 1479 1479 1478 1478 1478 1478
1450 1450 1450 1450 1450 1451 1451 1452 1452 1452 1453 1453 1453 1454 1454 1455 1455 1456 1456 1457 1457 1457 1458 1458 1458 1459 1460 1460 1461 1462 1463 1464 1464 1465 1466 1467 1468 1468 1469 1469 1470 1471 1472 1472 1473 1473 1474 1474 1474 1475 1475 1476 1476 1476 1476 1476 1476 1476 1476 1477 1477 1477 1477 1477 1477 1477 1477 1476 1476
1448 1448 1448 1449 1449 1449 1450 1450 1451 1451 1451 1452 1452 1452 1453 1453 1453 1454 1454 1455 1455 1456 1456 1457 1457 1458 1458 1459 1460 1461 1462 1462 1463 1464 1464 1465 1466 1467 1467 1468 1468 1469 1470 1471 1471 1472 1472 1473 1473 1473 1473 1474 1474 1474 1474 1474 1474 1474 1474 1475 1475 1475 1475 1475 1475 1475 1475 1475 1474
1447 1447 1447 1448 1448 1448 1448 1449 1449 1449 1450 1450 1451 1451 1451 1452 1452 1453 1453 1453 1454 1454 1455 1455 1456 1457 1457 1458 1459 1459 1460 1461 1462 1462 1463 1464 1464 1465 1466 1466 1467 1468 1468 1469 1469 1470 1470 1471 1471 1471 1472 1472 1472 1472 1472 1472 1473 1473 1473 1473 1473 1473 1473 1473 1473 1473 1473 1473 1473
1445 1445 1446 1446 1446 1447 1447 1447 1448 1448 1448 1449 1449 1449 1450 1450 1450 1451 1452 1452 1453 1453 1454 1454 1455 1455 1456 1457 1457 1458 1459 1459 1460 1461 1462 1463 1463 1463 1464 1465 1465 1466 1466 1467 1468 1468 1468 1469 1469 1469 1470 1470 1470 1470 1470 1470 1471 1471 1471 1471 1471 1471 1471 1471 1471 1471 1471 1471 1471
1444 1444 1444 1444 1444 1445 1445 1446 1446 1447 1447 1447 1448 1448 1448 1448 1449 1449 1450 1451 1451 1452 1453 1453 1453 1454 1454 1455 1456 1457 1457 1458 1458 1459 1460 1461 1461 1462 1463 1463 1463 1464 1465 1465 1466 1466 1467 1467 1468 1468 1468 1468 1468 1468 1468 1469 1469 1469 1469 1469 1469 1469 1469 1469 1469 1469 1469 1469 1469
1443 1443 1443 1443 1443 1443 1444 1444 1444 1445 1445 1446 1446 1447 1447 1447 1448 1448 1449 1449 1450 1451 1451 1452 1452 1453 1453 1454 1454 1455 1456 1456 1457 1458 1458 1459 1460 1460 1461 1461 1462 1462 1463 1463 1464 1464 1465 1465 1466 1466 1466 1466 1466 1467 1467 1467 1467 1467 1467 1467 1467 1467 1467 1467 1467 1467 1467 1467 1467